Location: Chevregny
(49.4719°N, 3.5913°E)
Time: 04:26:20
(UTC+00:00)

Daily predictions for brighter satellites

Satellite Brightness Start Highest point End
(mag) Time Altitude Azimuth Time Altitude Azimuth Time Altitude Azimuth
Cosmos 1844 Rocket 4.4 00:02:22 10° NW 00:05:29 20° W 00:05:29 20° W
Lacrosse 4 Rocket 4.2 00:04:55 10° NW 00:06:37 12° NNW 00:08:17 10° N
Cosmos 1943 Rocket 3.6 00:01:44 10° NNW 00:06:52 33° NE 00:10:24 18° ESE
SL-16 R/B 3.7 00:06:04 21° W 00:08:42 30° NW 00:13:39 10° NNE
ATLAS 5 CENTAUR R/B 3.7 00:06:42 10° NNW 00:10:39 28° NNE 00:15:21 10° E
RESURS DK-1 4.2 00:13:30 25° ENE 00:13:30 25° ENE 00:15:33 10° NE
Cosmos 972 Rocket 4.2 00:12:33 59° ENE 00:12:33 59° ENE 00:16:59 10° NNE
Cosmos 1867 3.9 00:10:52 10° NW 00:15:27 57° WNW 00:15:27 57° WNW
NOSS 2-2 (D) 4.0 00:14:13 10° NW 00:18:12 66° NNE 00:18:12 66° NNE
USA 32 4.2 00:20:05 63° WNW 00:20:05 63° WNW 00:25:07 10° N
Cosmos 2344 4.1 00:20:27 10° NW 00:28:39 80° NE 00:39:55 10° SE
Tsikada Rocket 4.0 00:30:35 61° WSW 00:31:16 66° WNW 00:37:25 10° N
USA 215 4.0 00:28:18 10° ENE 00:34:07 34° SE 00:34:07 34° SE
Cosmos 1536 4.3 00:32:19 10° N 00:35:23 31° ENE 00:35:23 31° ENE
Lacrosse 5 3.0 00:35:37 21° WNW 00:38:36 41° NNW 00:43:28 10° ENE
Meteor 1-11 Rocket 4.4 00:35:37 10° N 00:40:58 46° ENE 00:42:35 36° ESE
NOSS 2-3 (C) 4.4 00:37:36 10° NW 00:43:13 82° SW 00:45:10 50° SSE
ATLAS 3B R/B 4.3 00:36:41 10° NW 00:43:50 38° NNE 00:51:04 10° E
NOSS 0 Rocket 4.0 00:45:55 56° SE 00:46:36 60° ESE 00:52:39 10° NE
NOSS 2-3 (D) 4.4 00:42:41 10° NW 00:48:16 81° SW 00:50:19 49° SSE
NOSS 3-4 (A) 4.2 00:51:31 28° W 00:53:59 43° NNW 00:59:57 10° NE
NOSS 3-4 (C) 4.2 00:51:35 29° W 00:54:00 43° NNW 01:00:00 10° NE
Gbstr 26 Del rocket 3.3 00:57:32 66° NNE 00:57:32 66° NNE 01:01:14 10° ENE
H-2A R/B 3.9 00:54:27 10° NNW 00:57:38 21° WNW 00:57:39 21° WNW
Cosmos 2369 Rocket 4.5 00:55:08 10° N 00:59:33 23° NE 01:03:54 10° E
Cosmos 2237 Rocket 2.5 00:59:39 51° SE 01:00:17 53° ESE 01:05:49 10° NE
IDEFIX/ARIANE 42P 3.5 00:57:59 10° NNE 01:02:50 37° E 01:03:55 34° SE
Cosmos 1980 3.8 01:02:36 55° SE 01:03:13 59° ESE 01:08:47 10° NE
NOSS 2-2 (C) 4.5 01:01:48 10° NW 01:04:40 42° WNW 01:04:40 42° WNW
CZ-2D R/B 3.4 01:03:49 10° NNE 01:08:42 34° E 01:10:23 28° SE
USA 267 3.4 01:03:46 10° ESE 01:10:15 73° NNE 01:16:45 10° WNW
Cosmos 1151 Rocket 4.5 01:10:36 27° ESE 01:11:19 29° E 01:15:04 10° NNE
USA 308 4.3 01:14:03 26° E 01:14:03 26° E 01:16:02 10° ENE
Cosmos 2360 Rocket 4.1 01:10:54 15° W 01:13:58 22° NW 01:18:18 10° N
COSMOS 2428 3.0 01:13:37 49° W 01:14:44 58° NW 01:20:22 10° NNE
Meteor 2-9 Rocket 4.4 01:10:16 10° N 01:15:43 66° ENE 01:17:36 41° SE
Meteor 2-6 Rocket 4.4 01:15:50 56° SW 01:16:51 66° WNW 01:22:42 10° N
Cosmos 1743 Rocket 3.9 01:12:36 10° N 01:16:52 57° ENE 01:17:16 55° ESE
Cosmos 1726 3.7 01:16:25 10° NNW 01:17:56 25° NNW 01:17:56 25° NNW
Resurs 1-4 Rocket 2.9 01:15:43 10° NNE 01:20:46 43° E 01:22:16 35° SE
Cosmos 2322 4.5 01:21:01 36° W 01:22:34 43° NW 01:28:02 10° NNE
Cosmos 2219 Rocket 3.6 01:23:12 22° W 01:25:21 29° NW 01:30:11 10° NNE
BREEZE-M DEB (TANK) 4.3 01:27:27 14° E 01:27:27 14° E 01:27:47 10° E
IRIDIUM 104 4.3 01:21:14 10° N 01:26:25 65° W 01:26:54 61° WSW
Cosmos 2221 4.0 01:26:50 25° WNW 01:26:50 25° WNW 01:30:06 10° NNW
Cosmos 2278 Rocket 2.6 01:27:22 10° NW 01:32:30 43° WSW 01:32:30 43° WSW
IRIDIUM 114 4.5 01:30:26 10° NNW 01:35:32 54° W 01:36:02 52° WSW
USA 290 3.9 01:36:25 10° N 01:39:24 32° ENE 01:40:16 27° E
Cosmos 2333 Rocket 4.3 01:38:17 10° WNW 01:42:05 18° NW 01:45:54 10° N
COBE Rocket 4.1 01:37:32 10° NNE 01:42:08 60° E 01:43:15 46° SSE
Meteor 2-10 4.1 01:36:25 10° NNW 01:42:09 86° W 01:44:15 41° S
Cosmos 1420 Rocket 3.9 01:36:57 10° NNW 01:42:14 87° WSW 01:44:11 41° SSE
Cosmos 1680 Rocket 3.6 01:42:34 49° S 01:43:55 71° ESE 01:49:14 10° NNE
ADEOS II 2.9 01:40:01 10° NNE 01:45:04 44° E 01:47:24 28° SSE
Cosmos 2195 Rocket 4.5 01:44:51 38° S 01:47:25 80° E 01:53:40 10° NNE
RESURS DK-1 3.6 01:49:06 28° WNW 01:49:36 29° NW 01:53:12 10° NNE
Meteor 1-28 Rocket 4.1 01:49:06 31° ESE 01:50:20 45° ENE 01:53:50 10° N
Cosmos 1943 Rocket 2.3 01:45:21 10° NW 01:50:52 53° WSW 01:51:51 47° SW
Nadezhda 4 Rocket 4.0 01:50:48 43° SW 01:52:41 63° WNW 01:58:47 10° N
ATLAS 2AS CENTAUR R/B 3.0 01:49:36 35° S 01:52:45 62° SE 01:59:47 10° NE
ATLAS 5 CENTAUR R/B 1.9 01:50:07 10° NW 01:54:59 79° SW 02:01:04 10° SE
Cosmos 1408 Rocket 4.5 01:51:33 10° NNW 01:54:59 33° WNW 01:54:59 33° WNW
Cosmos 2056 Rocket 3.5 01:50:30 10° NNW 01:55:56 80° WSW 01:58:37 31° SSE
Cosmos 1428 Rocket 4.4 01:53:46 39° SSW 01:56:17 83° W 02:02:32 10° N
SL-16 R/B 2.8 01:54:58 30° SSE 01:57:22 47° ESE 02:02:47 10° NE
Sich 1 3.3 01:57:25 10° NNW 02:01:28 47° W 02:01:28 47° W
Cosmos 1340 Rocket 3.0 02:01:32 48° SSE 02:02:19 60° E 02:06:13 10° NNE
CZ-2C R/B 2.5 02:00:14 35° S 02:02:37 78° WSW 02:07:56 10° NNW
GP-B 3.0 01:58:19 10° N 02:02:46 89° E 02:03:57 49° S
Meteor 1-27 Rocket 3.7 02:01:02 42° SSW 02:02:57 72° WNW 02:08:35 10° N
GEOS 3 Rocket 3.5 01:59:41 10° SE 02:05:03 82° SW 02:10:23 10° NW
Okean 1 3.7 02:05:34 42° WNW 02:05:34 42° WNW 02:09:09 10° N
Cosmos 1624 Rocket 3.9 02:00:40 10° NNW 02:05:52 68° WSW 02:08:03 34° S
SL-16 R/B 2.6 02:00:25 11° SSE 02:06:28 78° ENE 02:12:44 10° NNW
ALOS 3.5 02:03:07 10° NNE 02:07:26 37° E 02:10:17 18° SSE
NPP 3.7 02:04:49 10° N 02:10:11 66° WNW 02:12:10 39° SW
Cosmos 1340 2.4 02:07:04 10° N 02:10:31 79° E 02:10:59 63° SE
NOSS 3-1 (A) 4.2 02:03:30 10° NW 02:10:36 75° NE 02:19:19 10° SE
Cosmos 1536 4.4 02:08:38 10° NW 02:10:40 20° WNW 02:10:40 20° WNW
Cosmos 1805 2.9 02:09:05 10° NNW 02:12:48 81° W 02:13:21 62° S
Cosmos 1733 3.8 02:10:44 10° NNW 02:13:33 37° WNW 02:13:33 37° WNW
H-2A R/B 4.1 02:13:16 10° N 02:17:04 38° WNW 02:17:40 36° W
USA 215 3.2 02:11:05 10° ENE 02:17:40 88° NNW 02:21:28 28° WSW
Cosmos 1805 Rocket 4.3 02:14:14 10° NNW 02:18:06 33° W 02:18:06 33° W
Intercosmos 25 Rocket 4.0 02:15:46 10° N 02:19:42 73° E 02:25:48 10° SSE
COSMOS 2441 4.3 02:17:30 10° NNE 02:22:25 81° WNW 02:24:29 35° SSW
Lacrosse 5 3.3 02:17:46 10° WNW 02:22:31 37° N 02:27:17 10° ENE
Cosmos 1666 Rocket 3.5 02:18:31 10° NNW 02:22:59 81° W 02:25:08 30° S
Cosmos 1553 Rocket 4.0 02:17:38 10° N 02:23:55 83° E 02:30:03 10° S
NOSS 3-1 (C) 4.1 02:21:20 10° NW 02:28:31 62° SW 02:37:12 10° SSE
ATLAS 3B R/B 3.0 02:27:40 10° NW 02:35:33 90° SW 02:43:21 10° SE
MSX 4.2 02:30:05 10° N 02:35:39 51° WNW 02:38:35 27° SW
MINOTAUR IV R/B 4.5 02:34:14 10° NNW 02:38:42 90° NNE 02:43:09 10° SSE
Cosmos 1656 Rocket 3.5 02:34:26 10° NNW 02:39:52 75° WSW 02:45:16 10° SSE
Cosmos 2026 Rocket 4.3 02:37:39 26° SW 02:41:05 53° WNW 02:47:20 10° N
Cosmos 1470 4.4 02:37:48 10° N 02:41:18 33° ENE 02:44:45 10° SE
IDEFIX/ARIANE 42P 3.4 02:37:36 10° N 02:42:20 36° WNW 02:44:41 24° WSW
Cosmos 1328 Rocket 3.5 02:41:11 28° SSW 02:43:29 78° W 02:47:56 10° N
Cosmos 1626 1.7 02:42:32 35° S 02:43:47 82° E 02:47:05 10° NNE
Gbstr 26 Del rocket 3.0 02:39:47 11° WNW 02:43:58 71° N 02:47:47 10° E
Cosmos 2369 Rocket 2.1 02:38:40 10° NNW 02:44:18 86° WSW 02:49:54 10° SSE
USA 308 3.0 02:42:30 26° W 02:44:21 56° NNW 02:48:14 10° ENE
Cosmos 2237 Rocket 3.3 02:41:27 20° W 02:44:36 33° NW 02:49:45 10° NNE
Cosmos 1066 Rocket 4.5 02:40:40 14° S 02:45:19 67° E 02:50:53 10° NNE
Cosmos 1092 Rocket 4.3 02:42:40 25° SW 02:45:57 48° WNW 02:51:56 10° N
CZ-2C R/B 3.3 02:43:20 10° N 02:48:33 61° WNW 02:51:58 23° SW
Cosmos 1151 Rocket 4.0 02:47:22 26° WSW 02:48:43 32° WNW 02:52:39 10° N
CZ-2D R/B 2.8 02:43:44 10° N 02:48:48 42° WNW 02:51:41 23° WSW
Cosmos 1975 3.3 02:45:41 10° NNW 02:49:18 38° W 02:50:23 31° SW
Cosmos 921 Rocket 3.4 02:48:29 29° WSW 02:50:21 48° WNW 02:54:38 10° N
SAR-Lupe-1 4.1 02:48:57 10° N 02:52:30 61° WNW 02:54:03 31° SW
Cosmos 1633 Rocket 3.3 02:48:21 10° NNW 02:52:34 49° W 02:55:02 23° SSW
Cosmos 2297 3.7 02:47:13 10° NW 02:52:52 59° WSW 02:58:29 10° S
USA 267 3.4 02:47:18 10° SSE 02:53:31 47° SW 02:59:46 10° WNW
AQUA 4.0 02:49:17 10° N 02:53:56 58° WNW 02:56:42 23° SW
SAR-Lupe-4 3.8 02:53:13 10° N 02:56:42 51° WNW 02:58:13 29° SW
Cosmos 44 4.4 02:53:53 10° NNW 02:58:47 47° NE 03:03:21 10° ESE
Resurs 1-4 Rocket 3.1 02:55:46 10° N 03:00:26 33° WNW 03:03:20 19° WSW
Cosmos 1766 3.0 03:00:26 10° NNW 03:04:05 63° W 03:07:19 13° S
Cosmos 494 Rocket 4.0 03:02:00 21° SW 03:05:28 68° WNW 03:10:36 10° NNE
Iridium 51 3.8 03:05:13 15° S 03:07:51 90° SE 03:11:20 10° N
Meteor 2-4 Rocket 4.0 03:04:17 20° SW 03:07:57 49° WNW 03:13:29 10° N
Cosmos 1943 3.8 03:03:45 10° S 03:09:17 55° ESE 03:14:51 10° NE
FENGYUN 3A 4.1 03:05:23 10° N 03:10:32 46° WNW 03:14:21 17° SW
USA 290 4.0 03:11:22 10° WNW 03:13:01 17° W 03:13:01 17° W
Cosmos 1048 Rocket 4.0 03:09:34 17° SSW 03:13:44 76° WNW 03:18:59 10° NNE
Cosmos 2263 4.1 03:08:18 10° NNW 03:13:54 70° WSW 03:19:31 10° SSE
UNK 4.1 03:10:15 12° SSW 03:14:15 42° W 03:18:40 10° NNW
Thor Agena Rocket 4.3 03:09:48 10° NNE 03:14:43 50° E 03:19:39 10° S
CZ-2C R/B 3.0 03:15:23 10° NNE 03:20:33 64° ESE 03:25:36 10° S
H-2A R/B 4.3 03:17:50 10° NE 03:21:57 24° E 03:26:07 10° SE
ADEOS II 3.1 03:19:56 10° N 03:24:32 32° WNW 03:28:17 14° WSW
PAYLOAD A 4.4 03:20:20 10° NNE 03:25:07 59° E 03:29:45 10° S
USA 306 4.5 03:22:18 10° S 03:25:09 21° SE 03:27:52 10° E
EO 1 Delta rocket 4.3 03:21:42 10° N 03:26:06 45° WNW 03:30:33 12° SW
Cosmos 883 Rocket 4.4 03:21:53 10° N 03:28:01 82° W 03:34:09 10° S
Cosmos 1707 2.6 03:27:55 10° S 03:31:35 84° ESE 03:35:18 10° N
Cosmos 1302 Rocket 4.0 03:27:11 10° NNW 03:32:25 88° ENE 03:37:37 10° SSE
IRS-1D 3.9 03:27:38 10° NNE 03:32:47 70° ESE 03:38:01 10° S
CZ-4 R/B 3.8 03:29:04 10° N 03:33:45 68° WNW 03:38:20 10° SSW
Cosmos 1110 Rocket 4.4 03:30:52 10° NW 03:35:47 41° WSW 03:40:42 10° S
Cosmos 1842 3.2 03:32:13 10° SSW 03:35:56 63° WNW 03:39:40 10° N
YAOGAN 6 2.4 03:34:58 10° NNE 03:38:16 83° ESE 03:41:35 10° SSW
ATLAS 5 CENTAUR R/B 3.5 03:35:13 10° WNW 03:38:35 17° WSW 03:42:20 10° SSW
Cosmos 2266 Rocket 4.0 03:33:16 10° SSW 03:39:15 63° WNW 03:45:15 10° N
Cosmos 1603 4.1 03:35:41 10° SSW 03:41:12 63° ESE 03:46:48 10° NNE
S3M 4.2 03:35:38 10° NNW 03:41:35 51° W 03:47:35 10° SSW
SL-16 R/B 3.1 03:36:50 12° WSW 03:41:38 36° NW 03:46:52 10° NNE
SL-08 ROCKET BODY 4.4 03:36:52 10° SSW 03:42:48 67° WNW 03:48:53 10° N
CZ-2C R/B 4.4 03:41:43 10° WSW 03:43:43 12° W 03:45:51 10° WNW
ATLAS 2AS CENTAUR R/B 3.5 03:37:01 10° WSW 03:44:01 46° NW 03:50:46 10° NE
Cosmos 1452 Rocket 4.2 03:39:28 10° NW 03:44:08 33° WSW 03:48:47 10° SSW
ALOS 3.3 03:40:31 10° N 03:44:34 30° WNW 03:48:36 10° SW
Cosmos 1515 Rocket 4.2 03:40:26 10° SW 03:44:37 40° WNW 03:48:49 10° N
Cosmos 1869 Rocket 3.5 03:42:31 10° NNW 03:46:51 69° W 03:51:07 10° S
Envisat 3.1 03:44:26 10° N 03:49:27 59° WNW 03:54:25 10° SSW
Cosmos 1758 4.4 03:46:24 10° N 03:50:12 47° ENE 03:53:56 10° SSE
SL-16 R/B 3.7 03:46:09 10° SW 03:50:44 21° W 03:55:21 10° NW
USA 215 3.9 03:54:07 10° ENE 04:00:25 51° NNW 04:06:41 10° W
Cosmos 2228 Rocket 3.5 03:59:47 10° S 04:04:08 67° E 04:08:30 10° NNE
Meteor 1-22 Rocket 4.1 03:59:02 10° NNW 04:04:36 73° W 04:09:55 10° S
Lacrosse 5 2.2 04:00:59 10° NW 04:06:08 74° NNE 04:11:14 10° ESE
CZ-3 R/B 4.4 03:52:56 10° SW 04:10:43 25° S 04:18:08 10° SE
